テンペル第1彗星

9P/Tempel 1 (2022)

English version
Home page
Updated on May 17, 2021

---------------------------------------------------------------------

・ プロフィール

・ 写真集

・ 軌道要素

Epoch 2022 Mar. 2.0 TT = JDT 2459640.5
T 2022 Mar. 4.94985 TT                                  Rudenko
q   1.5442325            (2000.0)            P               Q
n   0.17662924     Peri.  179.34953     -0.37339905     +0.91208695
a   3.1460165      Node    68.71420     -0.85193985     -0.26492380
e   0.5091467      Incl.   10.46999     -0.36711257     -0.31291018
P   5.58
From 7658 observations 1972 May 10-2021 Mar. 10, mean residual 0".6.
     Nongravitational parameters A1 = +0.01, A2 = +0.0015.

・ 星図

・ 光度変化

        m1 = 14.0 + 5 logΔ +  7.5 log r          [    ,-635]  (              〜2020年 6月 7日)
        m1 =  7.5 + 5 logΔ + 18.0 log r(t + 15)  [-635, 310]  (2020年 6月 7日〜2023年 1月 8日)
        m1 = 11.5 + 5 logΔ + 10.0 log r          [ 310,    ]  (2023年 1月 8日〜              )

---------------------------------------------------------------------

軌道要素はM.P.E.C. 2021-F20に掲載されたものです。
星図はステラナビゲータ Ver.10 (アストロアーツ) で作成したものです。
光度グラフはComet for Windowsで作成したものです。

---------------------------------------------------------------------

Copyright(C) Seiichi Yoshida (comet@aerith.net). All rights reserved.